Home   Weather   Battambang   Past weeks

Flag for Cambodia Past Weather in Battambang, Cambodia — Yesterday and Last 2 Weeks

Now
79 °F

Passing clouds.


Feels Like: 83 °F
Forecast: 75 / 88 °F
Wind: 3 mph from Southeast

Location: Siemreap

Current Time: Jul 22, 2017 at 2:01:41 am

Latest Report: Jul 22, 2017 at 1:30 am


Visibility: 6 mi

Pressure: 29.77 "Hg

Humidity: 100%

Dew Point: 79 °F

Location of BattambangLocation

Past Weather in Battambang — Graph

°F

Battambang Temperature Yesterday

Maximum temperature yesterday: 88 °F (at 4:00 pm)
Minimum temperature yesterday: 77 °F (at 12:00 am)
Average temperature yesterday: 82 °F

High & Low Weather Summary for the Past Weeks

 TemperatureHumidityPressure
High91 °F (Jul 8, 12:00 pm)100% (Jul 7, 7:00 am)31.45 "Hg (Jul 7, 7:00 am)
Low73 °F (Jul 10, 8:00 pm)55% (Jul 7, 2:00 pm)29.53 "Hg (Jul 16, 4:00 pm)
Average82 °F86%29.72 "Hg
* Reported Jul 7 12:00 am — Jul 22 12:00 am, Battambang. Weather by CustomWeather, © 2017

Note: Actual official high and low records may vary slightly from our data, if they occured in-between our weather recording intervals... More about our weather records

Advertising

Battambang Weather History for the Previous 24 Hours

Scroll right to see more
 ConditionsComfort  
Time TempWeatherWind HumidityBarometerVisibility
12:00 am
Sat, Jul 22
79 °FPassing clouds.3 mph100%29.80 "Hg6 mi
11:30 pm
Fri, Jul 21
79 °FPassing clouds.3 mph100%29.80 "Hg6 mi
11:00 pm79 °FPassing clouds.3 mph100%29.80 "Hg6 mi
10:30 pm81 °FPassing clouds.3 mph100%29.80 "Hg6 mi
10:00 pm81 °FPassing clouds.3 mph94%29.80 "Hg6 mi
9:00 pm81 °FPassing clouds.6 mph94%29.77 "Hg6 mi
8:30 pm81 °FPassing clouds.5 mph89%29.77 "Hg6 mi
8:00 pm81 °FPassing clouds.6 mph89%29.74 "Hg6 mi
7:30 pm82 °FPassing clouds.9 mph84%29.74 "Hg6 mi
7:00 pm84 °FPartly cloudy.5 mph74%31.45 "HgN/A
6:30 pm84 °FBroken clouds.5 mph74%29.68 "HgN/A
6:00 pm86 °FScattered clouds.5 mph70%29.68 "HgN/A
5:30 pm86 °FScattered clouds.5 mph66%29.65 "HgN/A
5:00 pm86 °FScattered clouds.5 mph66%29.65 "HgN/A
4:30 pm86 °FScattered clouds.8 mph66%29.65 "HgN/A
4:00 pm88 °FScattered clouds.6 mph66%29.65 "HgN/A
3:30 pm86 °FScattered clouds.5 mph70%29.68 "HgN/A
3:00 pm86 °FScattered clouds.8 mph70%29.68 "HgN/A
2:30 pm86 °FScattered clouds.7 mph70%29.71 "HgN/A
2:00 pm86 °FScattered clouds.7 mph66%29.71 "HgN/A
1:30 pm86 °FScattered clouds.8 mph70%29.71 "HgN/A
1:00 pm86 °FScattered clouds.7 mph70%29.74 "HgN/A
12:30 pm86 °FScattered clouds.8 mph66%29.74 "HgN/A
12:00 pm84 °FScattered clouds.8 mph74%29.74 "HgN/A
11:30 am84 °FScattered clouds.6 mph79%29.77 "HgN/A
11:00 am84 °FScattered clouds.7 mph79%29.77 "HgN/A
10:30 am82 °FScattered clouds.7 mph79%29.77 "HgN/A
10:00 am82 °FScattered clouds.6 mph84%29.77 "HgN/A
9:30 am81 °FScattered clouds.3 mph94%29.77 "HgN/A
9:00 am79 °FScattered clouds.1 mph100%29.77 "Hg6 mi
8:30 am79 °FScattered clouds.No wind100%29.77 "Hg6 mi
8:00 am79 °FScattered clouds.1 mph100%29.74 "Hg6 mi
7:00 am77 °FScattered clouds.2 mph100%29.71 "Hg6 mi
2:30 am77 °FPassing clouds.3 mph100%29.71 "Hg5 mi
2:00 am77 °FPassing clouds.1 mph100%29.71 "Hg5 mi
Weather by CustomWeather, © 2017

See weather overviewHow to use our weather pages